Tracking 32523 objects as of 14-Dec-2025
HD Live streaming from Space Station
objects crossing your sky now

DELTA 1 DEB

Track DELTA 1 DEB now!
10-day predictions


NORAD ID: 7940
Int'l Code: 1972-058CF
Perigee: 639.2 km
Apogee: 1,106.5 km
Inclination: 98.0 °
Period: 102.3 minutes
Semi major axis: 7243 km
RCS: 0.0419 m2 (small)
Launch date: July 23, 1972
Source: United States (US)
Launch site: AIR FORCE WESTERN TEST RANGE (AFWTR)

Note: This is SATELLITE DEBRIS
Your satellite tracking list
Your tracking list is empty




NASA's NSSDC Master Catalog

Two Line Element Set (TLE):
1 07940U 72058CF  25347.63566990  .00001620  00000-0  60274-3 0  9998
2 07940  98.0030  30.8494 0322529  73.8589 289.7828 14.08142497694882
Source of the keplerian elements: AFSPC